This is the latest recevied weather packets stored in our database for station/object SALIDA. If no packets are shown the sender has not sent any weather packets the latest 1 day(s).
| Time | Temp. | Humidity | Pressure | Rain* | Wind** | Luminosity | Snow |
|---|---|---|---|---|---|---|---|
| 1777999585 | 9.44° C | 59% | 998.7 hPa | 0 mm | 5.36 m/s, 150° | - | - |
| 1777998685 | 8.33° C | 62% | 999.1 hPa | 0 mm | 4.92 m/s, 162° | - | - |
| 1777997785 | 8.89° C | 61% | 999 hPa | 0 mm | 4.47 m/s, 113° | - | - |
| 1777996885 | 8.89° C | 60% | 999 hPa | 0 mm | 4.47 m/s, 188° | - | - |
| 1777995985 | 8.89° C | 62% | 999.1 hPa | 0 mm | 4.47 m/s, 178° | - | - |
| 1777995085 | 8.33° C | 64% | 999.3 hPa | 0 mm | 4.92 m/s, 136° | - | - |
| 1777994185 | 8.33° C | 64% | 999.4 hPa | 0 mm | 4.47 m/s, 246° | - | - |
| 1777993285 | 8.33° C | 65% | 999.5 hPa | 0 mm | 4.47 m/s, 158° | - | - |
| 1777992385 | 7.78° C | 67% | 999.8 hPa | 0 mm | 4.47 m/s, 150° | - | - |
| 1777991485 | 7.78° C | 67% | 999.9 hPa | 0 mm | 3.58 m/s, 171° | - | - |
| 1777990585 | 7.22° C | 68% | 1000.1 hPa | 0 mm | 4.47 m/s, 192° | - | - |
| 1777989685 | 7.78° C | 68% | 1000.3 hPa | 0 mm | 3.58 m/s, 153° | - | - |
| 1777988785 | 7.22° C | 68% | 1000.2 hPa | 0 mm | 3.58 m/s, 154° | - | - |
| 1777987885 | 7.22° C | 69% | 1000 hPa | 0 mm | 3.13 m/s, 193° | - | - |
| 1777986985 | 7.22° C | 69% | 1000.1 hPa | 0 mm | 2.24 m/s, 157° | - | - |
| 1777986085 | 7.22° C | 69% | 1000.1 hPa | 0 mm | 2.68 m/s, 139° | - | - |
| 1777985186 | 7.22° C | 69% | 999.8 hPa | 0 mm | 1.79 m/s, 128° | - | - |
| 1777984286 | 7.22° C | 68% | 999.9 hPa | 0 mm | 1.79 m/s, 146° | - | - |
| 1777983386 | 7.22° C | 68% | 999.6 hPa | 0 mm | 1.79 m/s, 176° | - | - |
| 1777982486 | 7.22° C | 67% | 999.6 hPa | 0 mm | 2.24 m/s, 117° | - | - |
| 1777981586 | 7.22° C | 66% | 999.2 hPa | 0 mm | 1.79 m/s, 103° | - | - |
| 1777980686 | 7.78° C | 66% | 999.3 hPa | 0 mm | 2.68 m/s, 112° | - | - |
| 1777979786 | 7.78° C | 65% | 999.5 hPa | 0 mm | 3.13 m/s, 157° | - | - |
| 1777978886 | 7.78° C | 64% | 999.5 hPa | 0 mm | 3.13 m/s, 158° | - | - |
| 1777977986 | 8.33° C | 64% | 999.3 hPa | 0 mm | 3.13 m/s, 135° | - | - |
* Rain latest hour (hover to see other rain measurements)
** Current wind speed in m/s (hover to see current wind gust speed)